Time,TemperatureF,DewpointF,PressureIn,WindDirection,WindDirectionDegrees,WindSpeedMPH,WindSpeedGustMPH,Humidity,HourlyPrecipIn,Conditions,Clouds,dailyrainin,SoftwareType,DateUTC
2013-08-16 00:13:00,48.0,45.0,30.18,West,271,0.0,-999.0,91,-99.99,,,-99.99,,2013-08-16 04:13:00,
2013-08-16 00:23:00,48.0,45.0,30.18,West,271,0.0,-999.0,91,-99.99,,,-99.99,,2013-08-16 04:23:00,
2013-08-16 00:42:00,48.0,45.0,30.18,West,271,0.0,-999.0,91,-99.99,,,-99.99,,2013-08-16 04:42:00,
2013-08-16 00:53:00,48.0,46.0,30.18,West,271,0.0,-999.0,92,-99.99,,,-99.99,,2013-08-16 04:53:00,
2013-08-16 01:12:00,48.0,46.0,30.18,West,271,0.0,-999.0,92,-99.99,,,-99.99,,2013-08-16 05:12:00,
2013-08-16 01:22:00,48.0,46.0,30.19,West,271,0.0,-999.0,92,-99.99,,,-99.99,,2013-08-16 05:22:00,
2013-08-16 01:42:00,48.0,46.0,30.18,West,271,0.0,-999.0,92,-99.99,,,-99.99,,2013-08-16 05:42:00,
2013-08-16 01:59:00,48.0,46.0,30.18,West,271,0.0,-999.0,93,-99.99,,,-99.99,,2013-08-16 05:59:00,
2013-08-16 03:00:00,49.0,47.0,30.18,West,271,0.0,-999.0,93,-99.99,,,-99.99,,2013-08-16 07:00:00,
2013-08-16 03:11:00,49.0,47.0,30.17,West,271,0.0,-999.0,93,-99.99,,,-99.99,,2013-08-16 07:11:00,
2013-08-16 03:21:00,49.0,47.0,30.17,West,271,0.0,-999.0,93,-99.99,,,-99.99,,2013-08-16 07:21:00,
2013-08-16 03:42:00,49.0,47.0,30.17,West,271,0.0,-999.0,93,-99.99,,,-99.99,,2013-08-16 07:42:00,
2013-08-16 03:52:00,49.0,47.0,30.17,West,271,0.0,-999.0,93,-99.99,,,-99.99,,2013-08-16 07:52:00,
2013-08-16 04:11:00,48.0,46.0,30.17,West,271,0.0,-999.0,93,-99.99,,,-99.99,,2013-08-16 08:11:00,
2013-08-16 04:21:00,48.0,46.0,30.18,West,271,0.0,-999.0,93,-99.99,,,-99.99,,2013-08-16 08:21:00,
2013-08-16 04:42:00,48.0,46.0,30.18,West,271,0.0,-999.0,93,-99.99,,,-99.99,,2013-08-16 08:42:00,
2013-08-16 04:52:00,47.0,45.0,30.17,West,271,0.0,-999.0,93,-99.99,,,-99.99,,2013-08-16 08:52:00,
2013-08-16 05:11:00,47.0,45.0,30.17,West,271,0.0,-999.0,93,-99.99,,,-99.99,,2013-08-16 09:11:00,
2013-08-16 05:21:00,47.0,45.0,30.17,West,271,0.0,-999.0,93,-99.99,,,-99.99,,2013-08-16 09:21:00,
2013-08-16 05:42:00,46.0,44.0,30.18,West,271,0.0,-999.0,93,-99.99,,,-99.99,,2013-08-16 09:42:00,
2013-08-16 05:53:00,46.0,44.0,30.18,West,271,0.0,-999.0,93,-99.99,,,-99.99,,2013-08-16 09:53:00,
2013-08-16 06:13:00,46.0,44.0,30.19,West,271,0.0,-999.0,93,-99.99,,,-99.99,,2013-08-16 10:13:00,
2013-08-16 06:23:00,46.0,44.0,30.19,West,271,0.0,-999.0,93,-99.99,,,-99.99,,2013-08-16 10:23:00,
2013-08-16 06:42:00,46.0,44.0,30.20,West,271,0.0,-999.0,93,-99.99,,,-99.99,,2013-08-16 10:42:00,
2013-08-16 06:52:00,45.0,43.0,30.20,West,271,0.0,-999.0,93,-99.99,,,-99.99,,2013-08-16 10:52:00,
2013-08-16 07:12:00,45.0,43.0,30.20,West,271,0.0,-999.0,93,-99.99,,,-99.99,,2013-08-16 11:12:00,
2013-08-16 07:22:00,46.0,44.0,30.20,West,271,0.0,-999.0,94,-99.99,,,-99.99,,2013-08-16 11:22:00,
2013-08-16 07:42:00,46.0,44.0,30.20,West,271,0.0,-999.0,94,-99.99,,,-99.99,,2013-08-16 11:42:00,
2013-08-16 07:52:00,47.0,45.0,30.21,West,271,0.0,-999.0,94,-99.99,,,-99.99,,2013-08-16 11:52:00,
2013-08-16 08:12:00,48.0,46.0,30.21,West,271,0.0,-999.0,94,-99.99,,,-99.99,,2013-08-16 12:12:00,
2013-08-16 08:21:00,49.0,48.0,30.21,SW,217,0.0,-999.0,95,-99.99,,,-99.99,,2013-08-16 12:21:00,
2013-08-16 08:42:00,50.0,49.0,30.21,SW,217,0.0,-999.0,95,-99.99,,,-99.99,,2013-08-16 12:42:00,
2013-08-16 08:52:00,53.0,52.0,30.21,SW,217,0.0,-999.0,95,-99.99,,,-99.99,,2013-08-16 12:52:00,
2013-08-16 09:11:00,56.0,53.0,30.21,SW,217,0.0,-999.0,91,-99.99,,,-99.99,,2013-08-16 13:11:00,
2013-08-16 09:22:00,58.0,53.0,30.21,SSE,162,1.0,-999.0,83,-99.99,,,-99.99,,2013-08-16 13:22:00,
2013-08-16 09:42:00,61.0,52.0,30.20,South,177,1.0,-999.0,73,-99.99,,,-99.99,,2013-08-16 13:42:00,
2013-08-16 09:53:00,62.0,53.0,30.20,South,183,2.0,-999.0,72,-99.99,,,-99.99,,2013-08-16 13:53:00,
2013-08-16 10:11:00,64.0,53.0,30.20,SSW,207,3.0,-999.0,67,-99.99,,,-99.99,,2013-08-16 14:11:00,
2013-08-16 10:22:00,65.0,52.0,30.21,South,183,3.0,-999.0,63,-99.99,,,-99.99,,2013-08-16 14:22:00,
2013-08-16 10:42:00,65.0,52.0,30.21,SSE,160,3.0,-999.0,63,-99.99,,,-99.99,,2013-08-16 14:42:00,
2013-08-16 10:52:00,66.0,53.0,30.21,WSW,248,2.0,-999.0,62,-99.99,,,-99.99,,2013-08-16 14:52:00,
2013-08-16 11:12:00,66.0,52.0,30.21,WNW,297,4.0,-999.0,61,-99.99,,,-99.99,,2013-08-16 15:12:00,
2013-08-16 11:22:00,65.0,51.0,30.21,SW,235,3.0,-999.0,60,-99.99,,,-99.99,,2013-08-16 15:22:00,
2013-08-16 11:43:00,66.0,50.0,30.21,West,267,4.0,-999.0,57,-99.99,,,-99.99,,2013-08-16 15:43:00,
2013-08-16 11:56:00,67.0,51.0,30.21,West,261,3.0,-999.0,57,-99.99,,,-99.99,,2013-08-16 15:56:00,
2013-08-16 12:13:00,68.0,52.0,30.21,SSW,209,4.0,-999.0,56,-99.99,,,-99.99,,2013-08-16 16:13:00,
2013-08-16 12:23:00,67.0,51.0,30.21,SSW,194,4.0,-999.0,56,-99.99,,,-99.99,,2013-08-16 16:23:00,
2013-08-16 12:44:00,68.0,52.0,30.21,North,360,2.0,-999.0,56,-99.99,,,-99.99,,2013-08-16 16:44:00,
2013-08-16 12:57:00,67.0,51.0,30.21,WSW,241,3.0,-999.0,57,-99.99,,,-99.99,,2013-08-16 16:57:00,
2013-08-16 13:13:00,69.0,53.0,30.20,South,184,3.0,-999.0,56,-99.99,,,-99.99,,2013-08-16 17:13:00,
2013-08-16 13:28:00,68.0,50.0,30.20,SSW,199,4.0,-999.0,52,-99.99,,,-99.99,,2013-08-16 17:28:00,
2013-08-16 13:47:00,69.0,50.0,30.20,WNW,294,5.0,-999.0,50,-99.99,,,-99.99,,2013-08-16 17:47:00,
2013-08-16 14:00:00,70.0,50.0,30.19,NE,48,4.0,-999.0,50,-99.99,,,-99.99,,2013-08-16 18:00:00,
2013-08-16 14:15:00,71.0,50.0,30.19,WSW,243,3.0,-999.0,48,-99.99,,,-99.99,,2013-08-16 18:15:00,
2013-08-16 14:28:00,72.0,52.0,30.20,NNE,19,3.0,-999.0,49,-99.99,,,-99.99,,2013-08-16 18:28:00,
2013-08-16 14:50:00,-999.0,-99.9,30.20,WNW,288,4.0,-999.0,51,-99.99,,,-99.99,,2013-08-16 18:50:00,
2013-08-16 15:14:00,69.0,50.0,30.19,SW,233,2.0,-999.0,50,-99.99,,,-99.99,,2013-08-16 19:14:00,
2013-08-16 15:25:00,69.0,48.0,30.19,NW,315,2.0,-999.0,48,-99.99,,,-99.99,,2013-08-16 19:25:00,
2013-08-16 15:36:00,69.0,48.0,30.19,NW,315,2.0,-999.0,48,-99.99,,,-99.99,,2013-08-16 19:36:00,
2013-08-16 15:46:00,69.0,48.0,30.19,NW,315,2.0,-999.0,48,-99.99,,,-99.99,,2013-08-16 19:46:00,
2013-08-16 15:55:00,72.0,49.0,30.19,WSW,254,3.0,-999.0,45,-99.99,,,-99.99,,2013-08-16 19:55:00,
2013-08-16 16:11:00,73.0,50.0,30.18,WNW,284,1.0,-999.0,45,-99.99,,,-99.99,,2013-08-16 20:11:00,
2013-08-16 16:23:00,72.0,49.0,30.18,WSW,244,2.0,-999.0,44,-99.99,,,-99.99,,2013-08-16 20:23:00,
2013-08-16 16:44:00,71.0,50.0,30.18,WNW,298,3.0,-999.0,48,-99.99,,,-99.99,,2013-08-16 20:44:00,
2013-08-16 16:52:00,72.0,50.0,30.18,South,189,2.0,-999.0,46,-99.99,,,-99.99,,2013-08-16 20:52:00,
2013-08-16 17:11:00,70.0,50.0,30.19,SW,223,3.0,-999.0,50,-99.99,,,-99.99,,2013-08-16 21:11:00,
2013-08-16 17:25:00,70.0,52.0,30.19,SE,140,2.0,-999.0,52,-99.99,,,-99.99,,2013-08-16 21:25:00,
2013-08-16 17:40:00,-999.0,-99.9,30.19,South,189,2.0,-999.0,-999,-99.99,,,-99.99,,2013-08-16 21:40:00,
2013-08-16 17:53:00,70.0,50.0,30.19,WNW,299,4.0,-999.0,50,-99.99,,,-99.99,,2013-08-16 21:53:00,
2013-08-16 18:13:00,70.0,51.0,30.19,WSW,242,1.0,-999.0,51,-99.99,,,-99.99,,2013-08-16 22:13:00,
2013-08-16 18:24:00,70.0,52.0,30.19,WSW,243,0.0,-999.0,53,-99.99,,,-99.99,,2013-08-16 22:24:00,
2013-08-16 18:43:00,69.0,55.0,30.19,WSW,243,0.0,-999.0,60,-99.99,,,-99.99,,2013-08-16 22:43:00,
2013-08-16 18:52:00,68.0,54.0,30.19,SSE,158,1.0,-999.0,60,-99.99,,,-99.99,,2013-08-16 22:52:00,
2013-08-16 19:12:00,69.0,52.0,30.20,WNW,287,2.0,-999.0,54,-99.99,,,-99.99,,2013-08-16 23:12:00,
2013-08-16 19:23:00,69.0,53.0,30.21,WSW,253,0.0,-999.0,56,-99.99,,,-99.99,,2013-08-16 23:23:00,
2013-08-16 19:42:00,68.0,53.0,30.21,WSW,253,0.0,-999.0,59,-99.99,,,-99.99,,2013-08-16 23:42:00,
2013-08-16 19:52:00,67.0,54.0,30.21,WSW,253,0.0,-999.0,63,-99.99,,,-99.99,,2013-08-16 23:52:00,
2013-08-16 20:12:00,66.0,55.0,30.21,WSW,253,0.0,-999.0,67,-99.99,,,-99.99,,2013-08-17 00:12:00,
2013-08-16 20:21:00,63.0,53.0,30.22,WSW,253,0.0,-999.0,71,-99.99,,,-99.99,,2013-08-17 00:21:00,
2013-08-16 20:42:00,61.0,53.0,30.22,WSW,253,0.0,-999.0,75,-99.99,,,-99.99,,2013-08-17 00:42:00,
2013-08-16 20:52:00,60.0,53.0,30.23,WSW,253,0.0,-999.0,79,-99.99,,,-99.99,,2013-08-17 00:52:00,
2013-08-16 21:11:00,58.0,53.0,30.22,WSW,253,0.0,-999.0,82,-99.99,,,-99.99,,2013-08-17 01:11:00,
2013-08-16 21:21:00,57.0,52.0,30.23,WSW,253,0.0,-999.0,84,-99.99,,,-99.99,,2013-08-17 01:21:00,
2013-08-16 21:42:00,56.0,52.0,30.24,WSW,253,0.0,-999.0,85,-99.99,,,-99.99,,2013-08-17 01:42:00,
2013-08-16 21:52:00,55.0,51.0,30.24,WSW,253,0.0,-999.0,86,-99.99,,,-99.99,,2013-08-17 01:52:00,
2013-08-16 22:11:00,54.0,50.0,30.24,WSW,253,0.0,-999.0,87,-99.99,,,-99.99,,2013-08-17 02:11:00,
2013-08-16 22:21:00,54.0,50.0,30.24,WSW,253,0.0,-999.0,87,-99.99,,,-99.99,,2013-08-17 02:21:00,
2013-08-16 22:42:00,53.0,50.0,30.24,WSW,253,0.0,-999.0,88,-99.99,,,-99.99,,2013-08-17 02:42:00,
2013-08-16 22:52:00,52.0,49.0,30.24,WSW,253,0.0,-999.0,89,-99.99,,,-99.99,,2013-08-17 02:52:00,
2013-08-16 23:11:00,52.0,49.0,30.24,WSW,253,0.0,-999.0,89,-99.99,,,-99.99,,2013-08-17 03:11:00,
2013-08-16 23:22:00,51.0,48.0,30.24,WSW,253,0.0,-999.0,90,-99.99,,,-99.99,,2013-08-17 03:22:00,
2013-08-16 23:43:00,51.0,48.0,30.25,WSW,253,0.0,-999.0,90,-99.99,,,-99.99,,2013-08-17 03:43:00,
2013-08-16 23:53:00,50.0,47.0,30.25,WSW,253,0.0,-999.0,90,-99.99,,,-99.99,,2013-08-17 03:53:00,